Content
SEND FEEDBACK

Daily
Averages
Monthly
Summary
United States of America

RALEIGH, NORTH CAROLINA


Home > North America > United States > North Carolina
Elevation: 376 feet     Latitude: 35 52N     Longitude: 078 47W

WEATHER
 
SELECT A DAY
Number of Records: 197,387;   Date Range: 1/1/95 - 12/17/14
 
SHARE

PRINT THIS DATA

[ ← Previous Day ]
WEATHER ALMANAC - APRIL 9, 2013
[ Next Day → ]
[ °C ]   °F
Weather ElementAverageHighLow
Temperature60 °F74 °F (7:00 pm)45 °F (7:00 pm)
Dewpoint35 °F (7:00 pm) (7:00 pm)
Humidity43 %61 % (7:00 pm)24 % (7:00 pm)
Wind Speed7 mph22 mph (7:00 pm)
Wind Gust32 mph (7:00 pm)

Weather ElementAverage
Visibility10 mi
Weather ElementTotal
Precipitation0.00 in
Averaged from records on April 9, 2013
WEATHER CONDITIONS BREAKOUT
WIND DIRECTION BREAKOUT
WEATHER BY HOUR - APRIL 9, 2013
[ °C ]   °F
Local TimeTemperatureDewpointHumidityBarometerVisibilityWind DirectionWind SpeedGust SpeedPrecipitationEventsConditions
1:51 AM63.0 °F54.0 °F72 %30.12 in10.0 miSSW (210°)9.2 mphPartly Cloudy
2:51 AM61.0 °F54.0 °F78 %30.11 in10.0 miSW (220°)9.2 mphPartly Cloudy
3:51 AM59.0 °F54.0 °F83 %30.12 in10.0 miSW (230°)6.9 mphPartly Cloudy
4:51 AM57.9 °F54.0 °F87 %30.13 in10.0 miSW (230°)4.6 mphPartly Cloudy
5:51 AM57.0 °F55.0 °F93 %30.14 in10.0 miWSW (240°)4.6 mphPartly Cloudy
6:51 AM57.0 °F55.0 °F93 %30.16 in10.0 miSW (230°)4.6 mphPartly Cloudy
7:51 AM60.1 °F57.0 °F90 %30.17 in10.0 miSW (230°)6.9 mphScattered Clouds
8:51 AM64.0 °F57.0 °F78 %30.19 in10.0 miWSW (240°)10.4 mphPartly Cloudy
9:51 AM68.0 °F57.0 °F68 %30.18 in10.0 miWSW (240°)9.2 mphPartly Cloudy
10:51 AM72.0 °F57.9 °F61 %30.18 in10.0 miWSW (240°)10.4 mphPartly Cloudy
11:51 AM75.9 °F57.9 °F54 %30.17 in10.0 miSW (230°)6.9 mphPartly Cloudy
12:51 PM80.1 °F57.9 °F47 %30.14 in10.0 miWest (260°)6.9 mphScattered Clouds
1:51 PM81.0 °F55.0 °F41 %30.13 in10.0 miVariable3.5 mphScattered Clouds
2:51 PM80.6 °F53.6 °F39 %30.11 in10.0 miWSW (250°)4.6 mph17.3 mphScattered Clouds
3:51 PM82.0 °F54.0 °F38 %30.08 in10.0 miVariable3.5 mph19.6 mphScattered Clouds
4:51 PM82.9 °F55.0 °F38 %30.06 in10.0 miSW (230°)13.8 mphScattered Clouds
5:51 PM82.0 °F55.9 °F41 %30.06 in10.0 miSW (230°)13.8 mph20.7 mphScattered Clouds
6:51 PM79.0 °F55.0 °F44 %30.06 in10.0 miWSW (240°)10.4 mphScattered Clouds
7:51 PM73.9 °F55.0 °F52 %30.06 in10.0 miSW (220°)6.9 mphScattered Clouds
8:51 PM72.0 °F55.0 °F55 %30.08 in10.0 miSW (220°)5.8 mphScattered Clouds
9:51 PM72.0 °F55.0 °F55 %30.09 in10.0 miSSW (210°)8.1 mphPartly Cloudy
10:51 PM69.1 °F55.0 °F61 %30.09 in10.0 miSW (220°)8.1 mphPartly Cloudy
11:51 PM68.0 °F55.0 °F63 %30.08 in10.0 miSW (230°)8.1 mphPartly Cloudy
Hourly data recorded from KRDU, located miles away from Raleigh, North Carolina







STORIES FROM OUR PARTNERS